Погода в Костроме

Погода в Костроме : погода сейчас, прогноз погоды и архив. Всё, что Вы хотите узнать о погоде в Костроме!

Хотите узнать прогноз погоды в Костроме? Тогда Вам сюда: Погода в Костроме

Поиск расширенной информации на нашем сайте:

Другие новости

Новости СМИ2

Главная страница сайта

Новости сайта

03.07.2017

Напоминаем, что на нашем специализированном сайте Метеоцентр.Азия вы можете получить высокодетализированные автоматические прогнозы погоды по пунктам России, СНГ и мира в авиационном формате (включающие направление и скорость ветра, видимость, явления погоды, количество и форму облачности, нижнюю и верхнюю границу облачности).


Погода в Костроме - сегодня

Время (UTC), дата Ветер
(°,м/с) 
Видим.   Явления Облачность Т
(°С)
Тd
(°С)
f(%) Тe
(°С)
Pmin
(гПа)
dP
(гПа)
Po
(мм)
O2
(г/м3)
Тmin Tmax R s Состояние
почвы
00 17.10.17 200 (Ю) 50000 м    10/0 средняя 
[Ac As]
+2.9 +1.6 91 +1  1007.7  -3  744  296           
03 17.10.17 220 (ЮЗ) 50000 м  слаб. дождь  10/0 средняя 
[Ac As]
+3.6 +2.5 92 +1  1004.8  -2.8  742  295  +2.6    0.0     
06 17.10.17 280 (З) 30000 м  {дождь}  10/10 300 м 
[Frnb]
+6.5 +5.5 93 +5  1004.9  0.3  742  291           
09 17.10.17 310 (СЗ) 6-12{12}  30000 м    8/8 600 м 
[Cu med, cong]
+9.6 +3.6 66 +8  1006.1  1.3  743  289           
12 17.10.17 300 (СЗ) 6-12{12}  30000 м    4/3 600 м верхняя 
[Cu med, cong|Ci fib]
+9.9 +0.7 53 +8  1006.9  0.8  744  289           
15 17.10.17 280 (З) 5{12}  50000 м    5/0 верхняя 
[Ci fib]
+7.6 +0.9 62 +6  1007.9  0.9  744  292    +10.2  0.6     
18 17.10.17 280 (З) 4{11}  50000 м    3/0 верхняя 
[Ci fib]
+6.2 +0.4 66 +5  1008  744  293           
21 17.10.17 260 (З) 50000 м    6/0 средняя 
[Ac trans]
+5 +0.9 75 +3  1007.8  -0.3  744  294           
00 18.10.17 240 (ЮЗ) 50000 м    10/0 средняя 
[Ac As]
+5.3 +1.6 77 +3  1005.9  -1.8  743  293           
03 18.10.17 220 (ЮЗ) 6{10}  50000 м    10/0 средняя 
[Ac As]
+5.8 +2.7 80 +3  1001.9  -3.9  740  291  +5         
06 18.10.17 240 (ЮЗ) 5{10}  28000 м  {дождь}  10/0 средняя 
[Ac As]
+7.5 +6.6 94 +6  999.7  -2.1  738  288           
09 18.10.17 250 (З) 5{10}  29000 м  слаб. дождь  10/8 300 м средняя 
[Sc|Ac As]
+11 +8.8 86 +10  997.8  -1.6  737  284           
12 18.10.17 260 (З) 4{10}  29000 м  слаб. дождь  10/5 300 м средняя 
[Sc|Ac As]
+11.1 +8.9 86 +10  997  -0.8  737  284           
15 18.10.17 250 (З) 5-10{10}  50000 м  {дождь}  10/8 300 м средняя 
[Sc|Ac As]
+9.9 +7.6 86 +9  997.1  737  285    +12  0.8     
18 18.10.17 250 (З) 5{11}  50000 м  {дождь}  10/5 300 м средняя 
[Sc|Ac As]
+10.9 +6.7 75 +10  996.5  -0.6  736  284           
21 18.10.17 300 (СЗ) 5{16}  50000 м  в посл. час дождь  4/4 300 м 
[Sc]
+7.2 +3.7 78 +5  998.7  738  289           
00 19.10.17 300 (СЗ) 4{13}  50000 м  {дождь}  10/0 средняя 
[Ac As]
+5.1 +2.2 82 +3  1002  3.1  740  292           
03 19.10.17 290 (З) 4{10}  50000 м    4/0 средняя 
[Ac As]
+4 +1.9 86 +2  1004.3  2.2  742  294  +4    0.7    влажная 
06 19.10.17 280 (З) 4{10}  30000 м  слаб. дождь  10/8 300 м средняя 
[Frnb|Ac trans]
+4.2 +2.9 91 +2  1006.4  743  294  +4         
09 19.10.17 310 (СЗ) 5{10}  30000 м  {дождь}  10/5 600 м кучево-дожд., средняя 
[Cb cap|Ac trans]
+5.6 +2.6 81 +4  1008.1  1.7  744  294           
12 19.10.17 320 (СЗ) 3{10}  30000 м  {ливн. осадки, дождь}  8/4 600 м кучево-дожд., средняя 
[Cb cap|Ac trans]
+5.8 +2 77 +5  1010  1.9  746  294           
15 19.10.17 280 (З) 3-12{12}  50000 м  {ливн. осадки}  6/0 средняя 
[Ac trans]
+4.4 +1.6 82 +3  1011.7  1.6  747  296    +7  0.5     
18 19.10.17 300 (СЗ) 50000 м  {ливн. осадки}  10/0 средняя 
[Ac und]
+3.7 +1.8 87 +2  1013  1.3  748  297           
21 19.10.17 310 (СЗ) 50000 м    10/0 средняя 
[Ac As]
+2.1 +0.6 90 +1  1014.4  1.3  749  299           
00 20.10.17 320 (СЗ) 50000 м    10/0 средняя 
[Ac As]
+2.1 +0.6 90 +1  1015.6  1.2  750  300           
Время (UTC), дата Ветер
(°,м/с) 
Видим.   Явления Облачность Т
(°С)
Тd
(°С)
f(%) Тe
(°С)
Pmin
(гПа)
dP
(гПа)
Po
(мм)
O2
(г/м3)
Тmin Tmax R s Состояние
почвы

Для получения пояснительной информации подведите курсор к названию столбца.

ПОГОДА в Костроме - архив

Всё, что Вы хотите узнать о погоде в Костроме - удобно и подробно!

Выберите нужную дату (начиная с 1 января 2015* года) и нажмите кнопку "Найти".
Будут отображены архивные сводки погоды по пункту Кострома, начиная с указанной даты.


Отображать данные в формате CSV (для использования в таблицах Excel)


Внимание! Наш архив погоды предназначен исключительно для личного некоммерческого использования в познавательных целях. Если Вам необходимы официальные справки о состоянии погоды (для производственных, юридических, коммерческих и т.п. целей), обращайтесь в органы Росгидромета.

*Примечание: данная дата относится к архиву по метеостанциям СССР (Россия, СНГ, Балтия).
Архив по метеостанциям Зарубежной Европы и Азии (кроме Китая) хранится 10 дней, по другим регионам земного шара (Китай, Африка, Америка, Австралия, Океания) - 1 день.

Кострома - район местоположения метеостанции


Название, широта, долгота, высота метеостанции:
Кострома 57.7°ш. 40.8°д. 126 м над ур. моря [Российская Федерация]

Дополнительная информация

В oтличие oт бoльшинства пoгoдных сайтoв мы публикуем пoдрoбную метеoинфoрмацию в детальнoм прoфессиoнальнoм фoрмате.

Характеристики температуры и влажнoсти вoздуха измеряются на высoте 2 м в тени вдали oт зданий и деревьев.
Скoрoсть ветра измеряется на высoте 10 м (на урoвне рoста челoвека скoрoсть ветра ниже в 1.5-2 раза). Если метеoстанция нахoдится в гoрoде или в лесу, тo скoрoсть ветра занижена на 2-4 м/с пo сравнению с oткрытым местoм. Скoрoсть ветра над акватoриями крупных рек и oзёр, а также на вершинах хoлмoв на 2-5 м/с выше, чем в oбычных услoвиях.
Атмoсфернoе давление в разных тoчках местнoсти мoжет значительнo oтличаться oт давления на метеoстанции, в зависимoсти oт услoвий рельефа (при пoдъёме на 10 м давление пoнижается примернo на 1 мм рт.ст.).